Back to catalog

STARLINK-34997

AliveCommunicationsVLEO
NORAD 65418·PAYLOAD·🇺🇸 United States

Launched Aug 31, 2025 from Cape Canaveral Space Force Station

Loading…

Next Passes (next 24 hours)

TLE

FreshSource: CelesTrak SupGP

Epoch: Sep 14, 2026, 15:18 UTC

1 65418C 25192Q   26257.63798611 -.00044897  00000+0 -13261-2 0  2571
2 65418  53.1590  73.0211 0001211  86.7892  26.8111 15.34421829    17

Track STARLINK-34997 in real time with AllMySat

Download on the App Store